DC0VZ-6 Weather Reports


time (UTC)temp
C
wind
direction
speed
KPH
gust
KPH
rain 1hr
cm
rain 24hr
cm
rain mn
cm
humidity
%
barometer
mb
20260506135611 16 247 3.2 4.8 0.00 0.00 0.00 49 974.8
20260506134611 16 247 3.2 4.8 0.00 0.00 0.00 48 974.8
20260506133611 16 225 3.2 8.0 0.00 0.00 0.00 49 975.1
20260506132611 16 270 4.8 6.4 0.00 0.00 0.00 49 975.1
20260506131611 16 247 4.8 4.8 0.00 0.00 0.00 49 974.8
20260506130611 17 292 4.8 9.7 0.00 0.00 0.00 49 974.8
20260506125610 18 292 3.2 4.8 0.00 0.00 0.00 50 974.6
20260506124610 17 270 4.8 1.6 0.00 0.00 0.00 50 974.6
20260506123611 17 337 4.8 6.4 0.00 0.00 0.00 50 974.3
20260506122610 17 135 4.8 3.2 0.00 0.00 0.00 50 974.3
20260506121610 17 247 4.8 0.0 0.00 0.00 0.00 51 974.5
20260506120610 16 180 4.8 12.9 0.00 0.00 0.00 51 974.5
20260506115610 16 135 4.8 6.4 0.00 0.00 0.00 53 974.6
20260506114610 17 157 3.2 9.7 0.00 0.00 0.00 53 974.6
20260506113610 17 67 4.8 1.6 0.00 0.00 0.00 53 974.6
20260506112610 16 157 4.8 17.7 0.00 0.00 0.00 53 974.6
20260506111609 18 247 4.8 4.8 0.00 0.00 0.00 55 974.6
20260506110609 17 225 1.6 9.7 0.00 0.00 0.00 54 974.6
20260506105610 18 202 4.8 8.0 0.00 0.00 0.00 56 974.8
20260506104609 17 202 3.2 6.4 0.00 0.00 0.00 56 974.8
20260506103609 17 247 4.8 8.0 0.00 0.00 0.00 56 974.6
20260506102609 17 337 4.8 6.4 0.00 0.00 0.00 56 974.6
20260506101609 16 247 4.8 9.7 0.00 0.00 0.00 56 974.5
20260506100609 16 225 3.2 0.0 0.00 0.00 0.00 56 974.5
20260506095609 16 135 3.2 4.8 0.00 0.00 0.00 56 974.6
20260506094609 16 225 3.2 1.6 0.00 0.00 0.00 57 974.6
20260506093614 17 315 3.2 4.8 0.00 0.00 0.00 58 974.5
20260506092614 17 247 4.8 6.4 0.00 0.00 0.00 57 974.5
20260506091614 16 225 3.2 3.2 0.00 0.00 0.00 57 974.4
20260506090614 15 180 3.2 6.4 0.00 0.00 0.00 58 974.4
20260506085614 15 112 3.2 3.2 0.00 0.00 0.00 58 974.1
20260506084614 14 180 3.2 11.3 0.00 0.00 0.00 58 974.1
20260506083614 14 247 1.6 0.0 0.00 0.00 0.00 58 973.9
20260506082614 14 202 1.6 0.0 0.00 0.00 0.00 58 973.9
20260506081613 13 157 1.6 4.8 0.00 0.00 0.00 58 973.9
20260506080613 13 157 3.2 1.6 0.00 0.00 0.00 58 973.9
20260506072613 13 180 3.2 6.4 0.00 0.00 0.00 57 973.8
20260506071613 13 225 3.2 3.2 0.00 0.00 0.00 57 973.6
20260506070613 13 180 1.6 0.0 0.00 0.00 0.00 57 973.6
20260506061612 12 180 1.6 6.4 0.00 0.00 0.00 58 973.5
20260506060612 12 135 0.0 0.0 0.00 0.00 0.00 57 973.5
20260506050612 11 157 0.0 0.0 0.00 0.00 0.00 57 973.2
20260506044612 11 315 1.6 0.0 0.00 0.00 0.00 57 973.3
20260506043611 11 315 0.0 4.8 0.00 0.00 0.00 57 973.4
20260506042611 10 247 0.0 0.0 0.00 0.00 0.00 57 973.4
20260506041611 10 225 0.0 0.0 0.00 0.00 0.00 57 973.4
20260506040611 10 202 0.0 0.0 0.00 0.00 0.00 57 973.4
20260506035611 10 202 0.0 0.0 0.00 0.00 0.00 57 973.6
20260506034611 10 157 0.0 0.0 0.00 0.00 0.00 57 973.6
20260506033611 10 225 0.0 0.0 0.00 0.00 0.00 57 973.6
20260506032611 10 180 0.0 0.0 0.00 0.00 0.00 57 973.6
20260506031611 10 247 0.0 0.0 0.00 0.00 0.00 57 973.5
20260506030611 10 180 0.0 4.8 0.00 0.00 0.00 57 973.5
20260506025610 11 225 0.0 0.0 0.00 0.00 0.00 56 973.7
20260506024611 11 315 1.6 0.0 0.00 0.00 0.00 56 973.7
20260506023610 11 180 1.6 0.0 0.00 0.00 0.00 56 973.5
20260506022610 11 135 1.6 3.2 0.00 0.00 0.00 56 973.5
20260506021610 11 157 4.8 14.5 0.00 0.00 0.00 56 973.8
20260506020610 11 225 1.6 3.2 0.00 0.00 0.00 56 973.8
20260506015610 11 180 1.6 3.2 0.00 0.00 0.00 56 973.8
20260506014610 11 157 0.0 0.0 0.00 0.00 0.00 56 973.8
20260506013610 12 157 1.6 0.0 0.00 0.00 0.00 56 973.9
20260506012610 12 202 1.6 0.0 0.00 0.00 0.00 56 973.9
20260506011611 11 135 0.0 0.0 0.00 0.00 0.00 56 974.1
20260506010610 12 180 1.6 3.2 0.00 0.00 0.00 56 974.1
20260506005610 12 157 0.0 0.0 0.00 0.00 0.00 56 974.3
20260506004609 12 202 1.6 4.8 0.00 0.00 0.00 55 974.3
20260506003609 12 225 1.6 3.2 0.00 0.00 0.00 55 974.4
20260506002609 13 225 1.6 0.0 0.00 0.00 0.00 55 974.4
20260506001609 13 247 3.2 6.4 0.00 0.00 0.00 55 974.8
20260506000609 13 157 3.2 1.6 0.00 0.00 0.00 55 974.8
20260505235609 13 247 3.2 6.4 0.00 0.00 0.00 55 974.8
20260505234609 13 270 3.2 1.6 0.00 0.00 0.00 54 974.8
20260505233614 13 247 4.8 11.3 0.00 0.00 0.00 54 975.1
20260505232614 13 202 1.6 9.7 0.00 0.00 0.00 54 975.1
20260505231614 12 247 0.0 1.6 0.00 0.00 0.00 55 975.1
20260505230614 12 180 0.0 0.0 0.00 0.00 0.00 55 975.1
20260505225614 12 247 0.0 0.0 0.00 0.00 0.00 55 975.0
20260505224613 12 157 0.0 0.0 0.00 0.00 0.00 55 975.0
20260505223613 12 180 0.0 0.0 0.00 0.00 0.00 55 975.4
20260505222613 12 180 0.0 0.0 0.00 0.00 0.00 55 975.4
20260505221613 12 247 0.0 0.0 0.00 0.00 0.00 55 975.6
20260505220613 12 202 0.0 0.0 0.00 0.00 0.00 55 975.6
20260505215613 12 157 0.0 0.0 0.00 0.00 0.00 55 975.8
20260505214613 12 180 0.0 0.0 0.00 0.00 0.00 55 975.8
20260505213613 12 270 0.0 0.0 0.00 0.00 0.00 54 976.0
20260505212613 12 202 0.0 0.0 0.00 0.00 0.00 54 976.0
20260505211613 12 180 0.0 0.0 0.00 0.00 0.00 54 975.9
20260505210613 12 180 0.0 0.0 0.00 0.00 0.00 54 975.9
20260505205613 12 157 0.0 0.0 0.00 0.00 0.00 54 976.0
20260505204613 12 180 0.0 0.0 0.00 0.00 0.00 54 976.0
20260505203613 12 180 0.0 0.0 0.00 0.00 0.00 54 975.9
20260505202612 13 157 0.0 0.0 0.00 0.00 0.00 52 975.9
20260505201612 13 202 0.0 0.0 0.00 0.00 0.00 52 975.8
20260505200612 13 270 0.0 0.0 0.00 0.00 0.00 52 975.8
20260505195612 13 225 0.0 0.0 0.00 0.00 0.00 52 975.8
20260505194612 13 270 0.0 0.0 0.00 0.00 0.00 52 975.8
20260505193612 13 112 0.0 0.0 0.00 0.00 0.00 52 975.7
20260505192612 13 180 0.0 0.0 0.00 0.00 0.00 52 975.7
20260505191612 13 180 0.0 0.0 0.00 0.00 0.00 52 975.4
20260505190612 14 180 0.0 0.0 0.00 0.00 0.00 51 975.4
20260505185612 14 157 0.0 0.0 0.00 0.00 0.00 51 975.4
20260505184612 14 202 0.0 0.0 0.00 0.00 0.00 51 975.4
20260505183612 15 135 0.0 0.0 0.00 0.00 0.00 51 975.5
20260505182611 15 135 0.0 0.0 0.00 0.00 0.00 51 975.5
20260505181612 15 157 0.0 0.0 0.00 0.00 0.00 51 975.6
20260505180611 15 157 0.0 0.0 0.00 0.00 0.00 51 975.6
20260505175611 15 90 0.0 0.0 0.00 0.00 0.00 50 975.6
20260505174611 15 135 0.0 0.0 0.00 0.00 0.00 50 975.6
20260505173611 15 135 0.0 0.0 0.00 0.00 0.00 50 975.4
20260505172611 15 135 0.0 0.0 0.00 0.00 0.00 50 975.4
20260505171611 16 135 0.0 0.0 0.00 0.00 0.00 49 975.2
20260505170611 16 67 0.0 0.0 0.00 0.00 0.00 49 975.2
20260505165611 16 337 0.0 0.0 0.00 0.00 0.00 49 975.5
20260505164611 16 22 0.0 0.0 0.00 0.00 0.00 49 975.5
20260505163610 16 67 0.0 0.0 0.00 0.00 0.00 49 975.6
20260505162610 16 22 0.0 0.0 0.00 0.00 0.00 49 975.6
20260505161610 16 45 0.0 0.0 0.00 0.00 0.00 49 975.8
20260505160610 16 22 0.0 0.0 0.00 0.00 0.00 49 975.8
20260505152610 17 22 0.0 0.0 0.00 0.00 0.00 48 976.1
20260505151610 16 45 0.0 0.0 0.00 0.00 0.00 49 976.1
20260505150610 16 315 0.0 0.0 0.00 0.00 0.00 48 976.1
20260505140610 16 337 0.0 0.0 0.00 0.00 0.00 48 976.4